Location: Boda
(47.1872°N, 9.5454°E)
Time: 18:27:09
(UTC+00:00)

Cosmos 1891 Rocket - Pass Details

Date: 14 May 2021
Orbit: 933 x 1019 km, 82.9° (Epoch: 16 June)

Event Time Altitude Azimuth Distance (km) Brightness Sun altitude
Rises 02:33:30 0° 350° (N) 3,633 8.0 -10.9°
Reaches altitude 10° 02:36:00 10° 350° (N) 2,674 7.3 -10.6°
Maximum altitude 02:42:07 86° 263° (W) 945 4.4 -9.8°
Drops below altitude 10° 02:48:07 10° 175° (S) 2,634 6.4 -9.1°
Sets 02:50:35 0° 175° (S) 3,574 7.1 -8.7°
